Home > Weather > Wismar > Past weeks

Flag for Germany Past Weather in Wismar, Mecklenburg-Western Pomerania, Germany — Yesterday and Last 2 Weeks

Now
77 °F

Sunny.


Feels Like: 79 °F
Forecast: 62 / 81 °F
Wind: 7 mph from Northeast

Location: Luebeck-Blankensee

Current Time: Jul 24, 2016 at 10:35:13 PM

Latest Report: Jul 24, 2016 at 7:50 PM


Visibility: 10 mi

Pressure: 30.07 "Hg

Humidity: 65%

Dew Point: 64 °F

Location of WismarLocation

Past Weather in Wismar — Graph

°F

Wismar Temperature Yesterday

Maximum temperature yesterday: 79 °F (at 11:50 AM)
Minimum temperature yesterday: 63 °F (at 7:50 AM)
Average temperature yesterday: 75 °F

High & Low Weather Summary for the Past Weeks

 TemperatureHumidityPressure
High84 °F (Jul 21, 2:50 PM)100% (Jul 13, 6:50 AM)30.18 "Hg (Jul 13, 6:50 AM)
Low50 °F (Jul 14, 6:20 AM)39% (Jul 23, 11:50 AM)29.71 "Hg (Jul 11, 6:50 AM)
Average69 °F70%30.00 "Hg
* Reported Jul 9 7:20 PM — Jul 24 7:50 PM, Wismar, Weather by CustomWeather, © 2016

Note: Actual official high and low records may vary slightly from our data, if they occured in-between our weather recording intervals... More about our weather records

Advertising

Wismar Weather History for the Previous 24 Hours

Scroll right to see more
 ConditionsComfort  
Time TempWeatherWind HumidityBarometerVisibility
7:50 PM
Sun, Jul 24
77 °FSunny.7 mph65%30.07 "Hg10 mi
7:20 PM79 °FSunny.8 mph61%30.07 "Hg10 mi
6:50 PM79 °FSunny.8 mph58%30.07 "Hg10 mi
6:20 PM81 °FSunny.10 mph54%30.07 "Hg10 mi
5:50 PM81 °FSunny.10 mph54%30.07 "Hg10 mi
5:20 PM81 °FPassing clouds.9 mph58%30.07 "HgN/A
4:50 PM81 °FPassing clouds.9 mph58%30.07 "HgN/A
4:20 PM81 °FPassing clouds.8 mph58%30.07 "HgN/A
3:50 PM81 °FPassing clouds.7 mph58%30.07 "HgN/A
3:20 PM81 °FPassing clouds.6 mph58%30.07 "HgN/A
2:50 PM81 °FPassing clouds.7 mph54%30.09 "HgN/A
2:20 PM81 °FSunny.5 mph54%30.09 "Hg10 mi
1:50 PM81 °FPassing clouds.6 mph54%30.09 "HgN/A
1:20 PM81 °FSunny.5 mph62%30.09 "Hg10 mi
12:50 PM79 °FPassing clouds.7 mph61%30.09 "HgN/A
12:20 PM79 °FPassing clouds.7 mph65%30.09 "HgN/A
11:50 AM77 °FPassing clouds.6 mph65%30.09 "HgN/A
11:20 AM77 °FPassing clouds.7 mph65%30.09 "HgN/A
10:50 AM75 °FPassing clouds.5 mph74%30.09 "HgN/A
10:20 AM73 °FPassing clouds.6 mph74%30.09 "HgN/A
9:50 AM72 °FPassing clouds.3 mph78%30.09 "HgN/A
9:20 AM72 °FPassing clouds.5 mph78%30.09 "HgN/A
8:50 AM68 °FPassing clouds.3 mph88%30.09 "HgN/A
8:20 AM68 °FPassing clouds.3 mph88%30.09 "HgN/A
7:50 AM66 °FSunny.5 mph88%30.09 "Hg10 mi
7:20 AM66 °FSunny.5 mph88%30.09 "Hg10 mi
Weather by CustomWeather, © 2016

See weather overviewHow to use our weather pages